Clarksville, TN

7:29 AM CDT on May 27, 2017 (GMT -0500)
Outlaw

Weather History for KCKV - July, 2013

Change the Weather History Date:

Saturday, July 6, 2013

  Actual Average Record
Temperature  
Mean Temperature 72 °F 78 °F  
Max Temperature 79 °F 89 °F 102 °F (1953)
Min Temperature 65 °F 67 °F 48 °F (1972)
Degree Days  
Heating Degree Days 0 0  
Month to date heating degree days 0 0  
Since 1 June heating degree days 3  
Since 1 July heating degree days 0 0  
Cooling Degree Days 7 13  
Month to date cooling degree days 37 78  
Year to date cooling degree days 513  
Since 1 June cooling degree days 364  
Growing Degree Days 22 (Base 50)    
Moisture  
Dew Point 67 °F    
Average Humidity 84    
Maximum Humidity 97    
Minimum Humidity 71    
Precipitation  
Precipitation 0.52 in 0.11 in 2.35 in (1967)
Month to date precipitation 2.67 0.69  
Year to date precipitation 26.79  
Sea Level Pressure  
Sea Level Pressure 30.09 in    
Wind  
Wind Speed 6 mph (SE)    
Max Wind Speed 23 mph    
Max Gust Speed 32 mph    
Visibility 9 miles    
Events Rain , Thunderstorm    
T = Trace of Precipitation, MM = Missing Value Source: NWS Daily Summary

Daily Weather History Graph

Daily Weather History Graph

Search for Another Location

Airport or City:

Trip Planner

Search our weather history database for the weather conditions in past years. The results will help you decide how hot, cold, wet, or windy it might be!

Date:

Astronomy

Jul. 06, 2013 Rise Set
Actual Time 5:37 AM CDT 8:11 PM CDT
Civil Twilight 5:07 AM CDT 8:41 PM CDT
Nautical Twilight 4:29 AM CDT 9:19 PM CDT
Astronomical Twilight 3:47 AM CDT 10:00 PM CDT
Moon 4:21 AM CDT (7/6) 6:54 PM CDT (7/6)
Length of Visible Light 15h 34m
Length of Day
14h 33m
Waning Crescent, 2% of the Moon is Illuminated
Jul 6
Waning Crescent
Jul 8
New
Jul 15
First Quarter
Jul 22
Full
Jul 29
Last Quarter

Hourly Weather History & Observations

Time (CDT) Temp. Dew Point Humidity Pressure Visibility Wind Dir Wind Speed Gust Speed Precip Events Conditions
12:19 AM 71.6 °F 69.8 °F 94% 30.09 in 10.0 mi Calm Calm - 0.04 in Rain Light Rain
12:50 AM 71.6 °F 69.8 °F 94% 30.08 in 9.0 mi SE 3.5 mph - 0.05 in Rain Light Rain
12:52 AM 71.1 °F 70.0 °F 96% 30.07 in 9.0 mi SE 3.5 mph - 0.05 in Rain Light Rain
1:10 AM 71.6 °F 69.8 °F 94% 30.08 in 8.0 mi ESE 3.5 mph - 0.01 in Rain Light Rain
1:26 AM 71.6 °F 69.8 °F 94% 30.09 in 8.0 mi Calm Calm - 0.01 in Rain Light Rain
1:45 AM 71.6 °F 69.8 °F 94% 30.09 in 7.0 mi Calm Calm - 0.03 in Rain Light Rain
1:52 AM 71.1 °F 69.1 °F 93% 30.08 in 8.0 mi Calm Calm - 0.03 in Rain Light Rain
2:52 AM 70.0 °F 68.0 °F 93% 30.07 in 7.0 mi Calm Calm - 0.05 in Rain Light Rain
3:52 AM 69.1 °F 66.9 °F 93% 30.06 in 10.0 mi East 3.5 mph - 0.03 in Rain Light Rain
4:52 AM 68.0 °F 66.9 °F 96% 30.07 in 10.0 mi NE 3.5 mph - 0.02 in Rain Light Rain
5:32 AM 69.8 °F 66.2 °F 88% 30.09 in 10.0 mi ENE 4.6 mph - 0.00 in   Scattered Clouds
5:43 AM 68.0 °F 66.2 °F 94% 30.11 in 10.0 mi ENE 4.6 mph - 0.00 in   Mostly Cloudy
5:52 AM 68.0 °F 66.0 °F 93% 30.09 in 10.0 mi East 4.6 mph - 0.00 in   Mostly Cloudy
6:02 AM 68.0 °F 66.2 °F 94% 30.11 in 10.0 mi East 4.6 mph - N/A   Scattered Clouds
6:21 AM 68.0 °F 66.2 °F 94% 30.12 in 10.0 mi East 5.8 mph - N/A   Mostly Cloudy
6:52 AM 66.9 °F 64.9 °F 93% 30.11 in 10.0 mi Calm Calm - N/A   Mostly Cloudy
7:52 AM 66.9 °F 64.0 °F 90% 30.11 in 10.0 mi SE 3.5 mph - N/A   Scattered Clouds
8:52 AM 66.9 °F 64.9 °F 93% 30.12 in 10.0 mi SE 5.8 mph - N/A   Partly Cloudy
9:22 AM 68.0 °F 66.2 °F 94% 30.13 in 10.0 mi SSE 3.5 mph - N/A   Overcast
9:52 AM 69.1 °F 66.0 °F 90% 30.11 in 10.0 mi SSE 5.8 mph - N/A   Mostly Cloudy
10:00 AM 69.8 °F 66.2 °F 88% 30.12 in 10.0 mi South 5.8 mph - N/A   Overcast
10:52 AM 71.1 °F 66.9 °F 87% 30.11 in 10.0 mi SSE 6.9 mph - N/A   Clear
11:32 AM 73.4 °F 69.8 °F 88% 30.11 in 10.0 mi SSE 6.9 mph - N/A   Scattered Clouds
11:52 AM 73.9 °F 68.0 °F 82% 30.09 in 10.0 mi SSE 6.9 mph - N/A   Mostly Cloudy
12:29 PM 73.4 °F 68.0 °F 83% 30.11 in 10.0 mi SSE 5.8 mph - N/A   Overcast
12:52 PM 73.9 °F 68.0 °F 82% 30.09 in 10.0 mi SSE 6.9 mph - N/A   Overcast
1:28 PM 75.2 °F 68.0 °F 78% 30.09 in 10.0 mi SE 9.2 mph - N/A   Scattered Clouds
1:52 PM 73.9 °F 68.0 °F 82% 30.08 in 10.0 mi ESE 8.1 mph - N/A   Mostly Cloudy
2:44 PM 77.0 °F 69.8 °F 78% 30.08 in 10.0 mi SE 9.2 mph - N/A   Partly Cloudy
2:52 PM 78.1 °F 69.1 °F 74% 30.07 in 10.0 mi ESE 10.4 mph 17.3 mph 0.01 in   Partly Cloudy
3:13 PM 78.8 °F 68.0 °F 69% 30.07 in 10.0 mi SE 11.5 mph 17.3 mph N/A   Mostly Cloudy
3:50 PM 78.8 °F 68.0 °F 69% 30.06 in 10.0 mi SE 12.7 mph - N/A   Scattered Clouds
3:52 PM 78.1 °F 68.0 °F 71% 30.05 in 10.0 mi SE 11.5 mph - N/A   Scattered Clouds
4:26 PM 78.8 °F 68.0 °F 69% 30.06 in 10.0 mi SE 11.5 mph - N/A   Mostly Cloudy
4:44 PM 78.8 °F 69.8 °F 74% 30.06 in 10.0 mi ESE 9.2 mph - N/A   Scattered Clouds
4:52 PM 79.0 °F 68.0 °F 69% 30.04 in 10.0 mi SE 10.4 mph - N/A   Mostly Cloudy
5:06 PM 78.8 °F 68.0 °F 69% 30.05 in 10.0 mi ESE 9.2 mph - N/A   Mostly Cloudy
5:52 PM 78.1 °F 68.0 °F 71% 30.03 in 10.0 mi SE 8.1 mph - N/A   Mostly Cloudy
6:52 PM 75.9 °F 68.0 °F 76% 30.04 in 10.0 mi ESE 8.1 mph - N/A   Mostly Cloudy
7:52 PM 73.9 °F 68.0 °F 82% 30.05 in 10.0 mi ESE 5.8 mph - N/A   Clear
8:52 PM 73.0 °F 68.0 °F 84% 30.07 in 10.0 mi ESE 6.9 mph - N/A   Mostly Cloudy
9:20 PM 73.4 °F 68.0 °F 83% 30.09 in 10.0 mi ESE 6.9 mph - N/A Thunderstorm Overcast
9:44 PM 66.2 °F 62.6 °F 88% 30.11 in 1.8 mi NW 21.9 mph 32.2 mph 0.14 in Rain , Thunderstorm Heavy Thunderstorms and Rain
9:52 PM 64.9 °F 63.0 °F 93% 30.11 in 1.2 mi North 10.4 mph 26.5 mph 0.25 in Rain , Thunderstorm Heavy Thunderstorms and Rain
9:56 PM 64.4 °F 62.6 °F 94% 30.11 in 3.0 mi NNW 4.6 mph - 0.00 in Rain , Thunderstorm Light Thunderstorms and Rain
10:26 PM 66.2 °F 64.4 °F 94% 30.13 in 2.5 mi SSE 6.9 mph - 0.05 in Rain , Thunderstorm Thunderstorms and Rain
10:34 PM 64.4 °F 64.4 °F 100% 30.11 in 3.0 mi NW 3.5 mph - 0.08 in Rain Rain
10:52 PM 64.9 °F 64.0 °F 97% 30.10 in 6.0 mi Calm Calm - 0.11 in Rain , Thunderstorm Light Rain
11:08 PM 64.4 °F 62.6 °F 94% 30.12 in 10.0 mi SSE 4.6 mph - 0.00 in Thunderstorm Overcast
11:29 PM 64.4 °F 64.4 °F 100% 30.13 in 8.0 mi SSW 4.6 mph - 0.01 in Rain Light Rain
11:39 PM 66.2 °F 64.4 °F 94% 30.14 in 10.0 mi SW 6.9 mph - 0.01 in Thunderstorm Overcast
11:52 PM 66.0 °F 64.9 °F 96% 30.13 in 10.0 mi SSW 8.1 mph - 0.01 in   Overcast